Hourly Data Report for September 28, 2017

All times are specified in Local Standard Time (LST). Add 1 hour to adjust for Daylight Saving Time where and when it is observed.

NORTH CAPE
PRINCE EDWARD ISLAND

47°03'29.000" N
63°59'55.000" W
7.60 m
8300516
71987
WNE

Download Data

Hourly Data (September 2017)
Hourly Data Report for September 28, 2017
Temp Definition
°C
Dew Point Temp Definition
°C
Rel Hum Definition
%
Wind Dir Definition
10's deg

Wind Spd Definition
km/h
Visibility Definition
km
Stn Press Definition
kPa
Hmdx Definition


Wind Chill Definition


Weather Definition


TIME
00:00 15.7 14.3 92 25 33   100.26     LegendNANA
01:00 14.8 13.7 93 24 24   100.16     LegendNANA
02:00 15.4 13.7 90 22 23   100.28     LegendNANA
03:00 15.4 14.1 92 21 13   100.15     LegendNANA
04:00 15.1 14.1 94 23 17   100.14     LegendNANA
05:00 14.7 14.1 96 22 20   100.07     LegendNANA
06:00 14.6 12.3 86 23 38   99.92     LegendNANA
07:00 14.9 12.7 87 23 34   99.84     LegendNANA
08:00 15.5 13.2 86 25 38   99.91     LegendNANA
09:00 15.9 10.7 72 28 31   100.01     LegendNANA
10:00 15.7 10.8 73 28 29   100.01     LegendNANA
11:00 15.5 10.2 71 27 27   100.06     LegendNANA
12:00 15.4 10.4 72 27 31   100.07     LegendNANA
13:00 15.8 11.2 74 27 27   100.04     LegendNANA
14:00 16.1 10.3 68 28 30   100.06     LegendNANA
15:00 16.6 10.8 68 29 24   100.06     LegendNANA
16:00 15.2 10.1 71 32 23   100.11     LegendNANA
17:00 15.2 9.5 69 31 27   100.15     LegendNANA
18:00 14.7 9.0 69 31 35   100.14     LegendNANA
19:00
20:00
21:00 13.8 7.2 65 29 46   100.18     LegendNANA
22:00 13.2 7.9 70 30 45   100.18     LegendNANA
23:00 12.4 7.2 71 30 47   100.21     LegendNANA

Notes on Data Quality.

Legend

  • E = Estimated
  • M = Missing
  • NA = Not Available
  • ‡ = Partner data that is not subject to review by the National Climate Archives
Date modified: